EW1820 Weather Reports


time (UTC)temp
C
wind
direction
speed
KPH
gust
KPH
rain 1hr
cm
rain 24hr
cm
rain mn
cm
humidity
%
barometer
mb
20260505012046 7 196 9.7 19.3 0.00 0.28 0.08 89 1009.4
20260505011551 7 195 8.0 22.5 0.00 0.28 0.08 89 1009.5
20260505011043 7 196 11.3 22.5 0.00 0.28 0.08 88 1009.5
20260505010544 7 184 12.9 25.7 0.00 0.28 0.08 89 1009.4
20260505010107 7 177 12.9 25.7 0.00 0.28 0.08 89 1009.3
20260505005545 7 201 14.5 25.7 0.00 0.79 0.08 89 1009.3
20260505005043 7 193 14.5 24.1 0.00 0.79 0.08 89 1009.1
20260505004552 7 196 12.9 22.5 0.00 0.79 0.08 89 1009.1
20260505004041 7 200 14.5 25.7 0.00 0.79 0.08 89 1009.1
20260505003545 7 194 12.9 25.7 0.00 0.79 0.08 88 1008.9
20260505003053 7 190 14.5 24.1 0.00 0.79 0.08 88 1008.9
20260505002546 7 208 16.1 24.1 0.00 0.79 0.08 89 1008.9
20260505002046 7 180 12.9 22.5 0.00 0.79 0.08 88 1008.8
20260505001553 7 209 16.1 22.5 0.00 0.79 0.08 89 1008.9
20260505001047 7 217 11.3 25.7 0.00 0.79 0.08 89 1008.8
20260505000545 7 214 12.9 25.7 0.00 0.79 0.08 88 1008.8
20260505000100 7 205 14.5 22.5 0.00 0.79 0.08 88 1008.8
20260504235547 7 192 12.9 22.5 0.00 1.30 0.08 88 1008.7
20260504235042 7 206 11.3 22.5 0.00 1.30 0.08 88 1008.5
20260504234553 7 207 12.9 24.1 0.00 1.30 0.08 88 1008.5
20260504234045 7 204 12.9 24.1 0.00 1.30 0.08 88 1008.4
20260504233543 7 223 12.9 20.9 0.00 1.30 0.08 87 1008.4
20260504233057 7 181 14.5 24.1 0.00 1.30 0.08 87 1008.1
20260504232544 7 198 12.9 25.7 0.00 1.30 0.08 87 1008.0
20260504232044 7 206 14.5 25.7 0.00 1.30 0.08 87 1008.0
20260504231556 7 197 11.3 20.9 0.00 1.30 0.08 88 1008.1
20260504231045 7 209 12.9 22.5 0.00 1.30 0.08 87 1008.0
20260504230545 7 223 12.9 22.5 0.00 1.30 0.08 87 1007.9
20260504230110 7 223 12.9 22.5 0.00 1.30 0.08 87 1007.8
20260504225548 7 209 12.9 22.5 0.00 1.78 0.08 87 1007.6
20260504225047 7 213 14.5 25.7 0.00 1.78 0.08 87 1007.6
20260504224607 7 215 16.1 27.4 0.00 1.78 0.08 87 1007.5
20260504224045 7 215 16.1 27.4 0.00 1.78 0.08 87 1007.4
20260504223544 7 189 14.5 24.1 0.00 1.78 0.08 86 1007.2
20260504223100 7 181 12.9 25.7 0.00 1.78 0.08 85 1007.1
20260504222544 8 217 14.5 25.7 0.00 1.78 0.08 84 1007.2
20260504222043 8 184 16.1 32.2 0.00 1.78 0.08 85 1006.9
20260504221549 8 213 12.9 32.2 0.00 1.78 0.08 85 1007.0
20260504221043 8 182 11.3 25.7 0.00 1.78 0.08 86 1006.8
20260504220541 8 182 12.9 25.7 0.00 1.78 0.08 85 1006.7
20260504220056 8 173 14.5 29.0 0.00 1.78 0.08 85 1006.7
20260504215544 8 192 14.5 30.6 0.00 1.88 0.08 85 1006.6
20260504215044 8 173 17.7 30.6 0.00 1.88 0.08 84 1006.7
20260504214551 8 160 16.1 32.2 0.00 1.88 0.08 83 1006.9
20260504214045 8 184 12.9 32.2 0.00 1.88 0.08 84 1006.7
20260504213545 8 196 16.1 30.6 0.00 1.88 0.08 83 1006.9
20260504213048 9 199 16.1 35.4 0.00 1.88 0.08 82 1006.8
20260504212545 9 155 16.1 35.4 0.00 1.88 0.08 81 1006.9
20260504212045 10 170 12.9 29.0 0.00 1.88 0.08 82 1006.8
20260504211557 9 169 16.1 29.0 0.00 1.88 0.08 83 1006.8
20260504211043 9 207 12.9 27.4 0.00 1.88 0.08 84 1006.8
20260504210543 9 182 14.5 25.7 0.00 1.88 0.08 84 1006.9
20260504210101 8 159 12.9 25.7 0.00 1.88 0.08 86 1006.9
20260504205544 8 176 12.9 27.4 0.00 1.88 0.08 86 1007.0
20260504205041 8 180 14.5 27.4 0.00 1.88 0.08 86 1007.2
20260504204554 8 185 12.9 25.7 0.00 1.88 0.08 86 1007.2
20260504204041 8 173 12.9 30.6 0.00 1.88 0.08 86 1007.2
20260504203541 8 180 12.9 30.6 0.00 1.88 0.08 86 1007.3
20260504203048 8 186 12.9 25.7 0.00 1.88 0.08 86 1007.3
20260504202541 8 163 11.3 24.1 0.00 1.88 0.08 86 1007.3
20260504202041 7 192 11.3 24.1 0.00 1.88 0.08 86 1007.3
20260504201551 7 180 12.9 24.1 0.00 1.88 0.08 86 1007.3
20260504201044 7 166 14.5 24.1 0.00 1.88 0.08 86 1007.3
20260504200542 8 184 12.9 25.7 0.00 1.88 0.08 85 1007.4
20260504200101 8 183 12.9 29.0 0.00 1.88 0.08 85 1007.4
20260504195544 8 195 11.3 29.0 0.00 2.01 0.08 85 1007.5
20260504195042 8 197 16.1 29.0 0.00 2.01 0.08 85 1007.4
20260504194550 8 209 14.5 32.2 0.00 2.01 0.08 85 1007.3
20260504194041 8 201 14.5 32.2 0.00 2.01 0.08 85 1007.4
20260504193543 8 180 16.1 30.6 0.00 2.01 0.08 84 1007.4
20260504193051 8 190 14.5 29.0 0.00 2.01 0.08 85 1007.4
20260504192545 8 219 16.1 32.2 0.00 2.01 0.08 85 1007.2
20260504192044 8 175 16.1 32.2 0.00 2.01 0.08 84 1007.3
20260504191605 8 175 19.3 40.2 0.00 2.01 0.08 81 1007.2
20260504191045 10 205 17.7 40.2 0.00 2.01 0.08 81 1007.0
20260504190547 10 163 22.5 40.2 0.00 2.01 0.08 80 1007.0
20260504190051 10 188 19.3 40.2 0.00 2.01 0.08 79 1006.9
20260504185542 10 167 19.3 40.2 0.00 2.29 0.08 80 1006.9
20260504185043 10 213 17.7 38.6 0.00 2.29 0.08 80 1006.8
20260504184552 10 177 20.9 37.0 0.00 2.29 0.08 80 1006.8
20260504184043 10 186 20.9 37.0 0.00 2.29 0.08 80 1006.8
20260504183544 10 169 16.1 37.0 0.00 2.29 0.08 80 1006.9
20260504183050 10 188 17.7 37.0 0.00 2.29 0.08 80 1007.0
20260504182541 10 163 20.9 37.0 0.00 2.29 0.08 80 1007.0
20260504182044 10 205 22.5 37.0 0.00 2.29 0.08 79 1007.1
20260504181553 10 181 17.7 40.2 0.00 2.29 0.08 81 1007.0
20260504181041 9 180 19.3 41.8 0.00 2.29 0.08 81 1006.9
20260504180542 9 207 20.9 41.8 0.00 2.29 0.08 80 1006.9
20260504180051 10 203 20.9 41.8 0.00 2.29 0.08 79 1007.0
20260504175543 10 182 22.5 38.6 0.00 2.69 0.08 79 1006.8
20260504175045 10 194 20.9 38.6 0.00 2.69 0.08 79 1006.9
20260504174555 10 144 17.7 35.4 0.00 2.69 0.08 79 1006.9
20260504174044 10 186 17.7 37.0 0.00 2.69 0.08 78 1006.8
20260504173545 10 179 17.7 37.0 0.00 2.69 0.08 78 1006.8
20260504173056 10 182 14.5 38.6 0.00 2.69 0.08 78 1007.0
20260504172548 10 190 17.7 40.2 0.00 2.69 0.08 80 1007.0
20260504172043 10 196 20.9 40.2 0.00 2.69 0.08 78 1007.1
20260504171600 10 215 17.7 32.2 0.00 2.69 0.08 79 1007.2
20260504171043 10 206 17.7 32.2 0.00 2.69 0.08 80 1007.2
20260504170544 10 198 19.3 33.8 0.00 2.69 0.08 80 1007.2
20260504151042 8 205 20.9 33.8 0.00 4.22 0.08 84 1008.2
20260504150542 8 204 20.9 30.6 0.00 4.22 0.08 84 1008.2
20260504141043 7 220 19.3 27.4 0.00 5.11 0.08 84 1008.2
20260504140543 7 231 17.7 27.4 0.00 5.11 0.08 85 1008.2
20260504130545 7 230 17.7 29.0 0.00 5.36 0.08 86 1008.2
20260504120129 7 232 20.9 32.2 0.00 5.49 0.08 82 1007.8
20260504110545 6 254 25.7 40.2 0.00 5.56 0.08 84 1007.0
20260504100545 5 230 20.9 37.0 0.00 5.61 0.08 84 1005.9
20260504081549 5 339 19.3 35.4 0.00 5.69 0.08 85 1003.8
20260504081042 5 290 16.1 30.6 0.00 5.69 0.08 85 1003.7
20260504080542 5 230 16.1 35.4 0.00 5.69 0.08 85 1003.7
20260504050542 5 244 24.1 43.5 0.00 5.69 0.08 93 1001.3
20260504045542 5 235 25.7 46.7 0.00 5.69 0.08 95 1001.1
20260504045041 5 252 25.7 46.7 0.00 5.69 0.08 96 1001.1
20260504044556 5 238 25.7 46.7 0.00 5.69 0.08 96 1001.1
20260504044045 5 215 22.5 40.2 0.00 5.69 0.08 96 1001.1
20260504043542 5 259 22.5 40.2 0.03 5.69 0.08 97 1001.0
20260504043110 5 300 22.5 43.5 0.00 5.66 0.05 97 1001.0
20260504042543 5 275 20.9 46.7 0.00 5.66 0.05 97 1001.0
20260504042046 5 355 20.9 48.3 0.03 5.66 0.05 98 1000.9
20260504041550 5 269 22.5 48.3 0.03 5.66 0.05 98 1000.9
20260504041042 5 196 25.7 45.1 0.05 5.66 0.05 98 1000.9
20260504040544 5 279 24.1 45.1 0.05 5.66 0.05 98 1000.9
20260504040057 5 218 25.7 45.1 0.05 5.66 0.05 98 1000.7
20260504035541 5 246 22.5 43.5 0.05 5.66 0.05 98 1000.8
20260504035042 5 233 20.9 40.2 0.05 5.66 0.05 98 1000.7
20260504034553 5 314 20.9 40.2 0.05 5.66 0.05 98 1000.6
20260504034042 5 311 16.1 37.0 0.05 5.64 0.03 98 1000.6
20260504033542 5 300 17.7 37.0 0.05 5.64 0.03 98 1000.6
20260504033059 5 211 19.3 43.5 0.05 5.64 0.03 98 1000.6
20260504032542 5 315 20.9 45.1 0.03 5.64 0.00 98 1000.5
20260504032043 5 284 24.1 45.1 0.05 5.64 0.00 98 1000.4
20260504031557 5 308 27.4 46.7 0.05 5.64 0.00 98 1000.3
20260504031044 5 255 29.0 46.7 0.03 5.61 0.00 99 1000.3
20260504030544 5 283 33.8 45.1 0.05 5.61 0.00 99 1000.1
20260504030109 5 263 25.7 49.9 0.05 5.61 0.00 99 1000.1
20260504025544 5 323 27.4 49.9 0.05 5.61 5.61 99 1000.0
20260504025042 5 266 27.4 48.3 0.08 5.61 5.61 99 999.8
20260504024550 5 274 29.0 48.3 0.08 5.61 5.61 99 999.8
20260504024044 5 252 25.7 41.8 0.05 5.59 5.59 99 999.7
20260504023542 5 307 25.7 45.1 0.08 5.59 5.59 99 999.6
20260504023053 5 267 29.0 48.3 0.08 5.59 5.59 99 999.5
20260504022543 5 301 32.2 48.3 0.08 5.59 5.59 99 999.5
20260504022047 5 262 29.0 48.3 0.08 5.56 5.56 99 999.4
20260504021551 5 286 30.6 46.7 0.08 5.56 5.56 99 999.3
20260504021046 5 317 30.6 48.3 0.08 5.56 5.56 99 999.3
20260504020544 5 286 30.6 51.5 0.10 5.54 5.54 99 999.3
20260504015544 5 304 30.6 51.5 0.15 5.54 5.54 99 999.0
20260504015044 5 276 29.0 48.3 0.15 5.54 5.54 99 999.0
20260504014604 5 306 32.2 48.3 0.18 5.54 5.54 99 999.0
20260504014043 5 290 33.8 48.3 0.23 5.54 5.54 99 998.8
20260504013547 5 302 33.8 51.5 0.25 5.51 5.51 99 998.8
20260504013057 5 302 32.2 51.5 0.30 5.51 5.51 99 998.6
20260504012543 5 290 33.8 51.5 0.36 5.51 5.51 99 998.5